CDT,Max TemperatureF,Mean TemperatureF,Min TemperatureF,Max Dew PointF,MeanDew PointF,Min DewpointF,Max Humidity, Mean Humidity, Min Humidity, Max Sea Level PressureIn, Mean Sea Level PressureIn, Min Sea Level PressureIn, Max VisibilityMiles, Mean VisibilityMiles, Min VisibilityMiles, Max Wind SpeedMPH, Mean Wind SpeedMPH, Max Gust SpeedMPH,PrecipitationIn, CloudCover, Events, WindDirDegrees
2013-10-1,84,72,59,66,62,57,100,73,46,29.97,29.93,29.87,10,9,2,18,9,23,0.00,2,,201
2013-10-2,85,71,56,66,61,57,100,73,46,30.05,30.00,29.92,10,4,0,12,4,14,0.00,1,Fog,160
2013-10-3,79,72,65,70,68,64,97,82,67,29.92,29.88,29.79,10,9,1,18,7,22,0.17,4,Rain-Thunderstorm,191
2013-10-4,86,77,68,70,68,65,100,78,55,29.94,29.88,29.83,10,9,5,16,9,21,0.00,3,,182
2013-10-5,74,60,45,70,61,46,93,79,64,29.89,29.86,29.82,10,10,7,16,8,20,0.01,5,Rain,223
2013-10-6,51,46,41,45,41,36,93,77,61,29.86,29.81,29.78,10,10,9,16,7,20,0.02,6,Rain,242
2013-10-7,73,60,47,48,46,41,100,67,34,30.09,29.98,29.87,10,10,8,16,6,21,0.00,3,,260
2013-10-8,78,62,45,50,46,42,93,61,28,30.17,30.12,30.08,10,10,9,17,8,24,0.00,0,,185
2013-10-9,75,60,45,48,46,42,93,63,33,30.19,30.13,30.09,10,10,7,10,4,18,0.00,0,,158
2013-10-10,77,61,45,54,51,45,93,67,40,30.14,30.07,29.98,10,10,10,13,5,17,0.00,0,,152
2013-10-11,78,66,54,59,55,53,100,71,42,30.00,29.93,29.85,10,10,8,22,11,29,0.00,2,,163
2013-10-12,72,59,46,61,47,34,90,58,25,30.23,30.02,29.88,10,9,5,16,7,23,T,3,Rain,284
2013-10-13,68,54,39,38,33,26,70,46,22,30.43,30.36,30.24,10,10,8,12,5,15,0.00,0,,15
2013-10-14,67,55,42,45,38,33,82,58,34,30.38,30.24,30.01,10,10,10,18,10,25,T,1,Rain,122
2013-10-15,67,58,49,61,53,40,90,67,44,29.98,29.88,29.83,10,8,2,20,12,29,0.12,6,Rain,216
2013-10-16,53,51,49,43,42,39,80,72,63,30.01,29.97,29.93,10,10,7,17,8,23,0.00,8,,275
2013-10-17,64,55,45,45,39,30,93,61,28,29.98,29.91,29.85,10,10,9,18,7,25,T,3,Rain,245
2013-10-18,53,48,42,42,37,34,92,71,50,30.04,29.99,29.90,10,9,5,15,7,22,T,6,,288
2013-10-19,59,47,35,38,34,30,92,63,33,29.98,29.90,29.84,10,10,8,22,10,28,0.00,4,,237
2013-10-20,69,54,38,46,40,37,92,65,37,29.87,29.81,29.73,10,10,6,22,7,26,0.02,5,Rain,221
2013-10-21,52,42,31,45,30,21,86,60,34,30.05,30.00,29.89,10,10,4,21,7,29,0.03,3,Rain,308
2013-10-22,43,38,32,41,36,28,100,88,76,30.04,29.95,29.84,10,9,6,18,7,24,0.14,8,Rain,11
2013-10-23,45,39,32,36,30,24,92,69,45,30.12,30.08,30.03,10,10,10,14,7,18,0.01,6,,296
2013-10-24,42,34,26,36,26,21,85,66,46,30.40,30.27,30.10,10,10,10,17,6,23,0.00,6,,316
2013-10-25,55,39,23,30,25,20,100,62,24,30.46,30.33,30.11,10,10,9,21,8,29,0.00,0,,234
2013-10-26,55,43,31,34,27,22,75,52,28,30.15,30.06,29.97,10,10,8,21,11,30,0.00,1,,285
2013-10-27,58,41,24,30,28,23,92,63,33,30.12,30.05,29.97,10,10,9,16,6,20,0.00,0,,218
2013-10-28,66,50,34,39,33,30,83,56,28,30.29,30.18,30.05,10,10,10,15,6,20,0.00,0,,69
2013-10-29,55,48,40,52,44,38,100,78,55,30.28,30.16,30.06,10,7,2,14,8,18,T,5,Rain,107
2013-10-30,65,59,53,63,58,53,100,97,93,30.06,29.91,29.72,10,3,0,24,8,36,2.21,8,Fog-Rain-Thunderstorm,97
2013-10-31,64,55,45,63,53,43,100,93,86,29.70,29.54,29.40,10,9,2,21,10,25,0.26,7,Rain,249